#timestamp,LO_Frequency,Hit,StdDev 
1696438815.1,286047003.4,Y
1696438835.9,286047004.3,P
1696438855.7,286047001.8,N
1696438875.5,286047001.8,N
1696438895.4,286047002.3,N
1696438915.2,286047005.8,Y
1696438935.1,286047000.4,P
1696438936.0,286047000.4,N
1696438955.8,286046998.6,N
1696438975.6,286047000.5,N
1696438995.5,286047002.7,N
1696439015.3,286047003.7,N
1696439035.1,286047005.9,Y
1696439055.9,286047001.3,P
1696439075.7,286047001.3,P
1696439095.6,286047005.6,P
1696439115.4,286047003.0,N
1696439135.2,286047004.0,N
1696439155.1,286047003.2,N
1696439156.0,286047003.2,N
1696439175.8,286047001.5,N
1696439195.6,286047003.1,N
1696439215.5,286047005.5,Y
1696439235.3,286047001.3,P
1696439255.2,286047001.4,N
1696439275.9,286047001.5,N
1696439295.7,286047003.9,Y
1696439315.6,286047004.4,P
1696439335.4,286047005.9,P
1696439355.2,286047003.5,N
1696439375.1,286047005.6,Y
1696439376.0,286047005.6,P
1696439395.8,286047004.4,P
1696439415.7,286047002.8,P
1696439435.5,286047001.6,N
1696439455.3,286047001.8,N
1696439475.2,286047004.0,N
1696439495.0,286047003.8,N
1696439495.9,286047003.8,N
1696439515.7,286047005.4,Y
1696439535.6,286047002.0,P
1696439555.4,286047002.2,N
1696439575.3,286047001.6,N
1696439595.1,286047003.6,Y
1696439596.0,286047003.6,P
1696439615.8,286047002.2,P
1696439635.7,286047002.5,P
1696439655.5,286047002.0,Y
1696439675.3,286047001.0,P
1696439695.2,286047002.3,N
1696439715.0,286047002.3,P
1696439715.9,286047002.3,Y
1696439735.8,286046998.2,P
1696439755.6,286046997.1,N
1696439775.4,286046997.8,N
1696439795.3,286046997.3,N
1696439815.1,286046998.8,N
1696439835.8,286047001.0,N
1696439855.7,286047001.1,N
1696439875.5,286046998.6,N
1696439895.4,286046998.8,N
1696439915.2,286046999.4,N
1696439935.0,286047000.7,N
1696439935.9,286047000.7,N
1696439955.8,286047002.8,N
1696439975.6,286047002.8,N
1696439995.4,286047004.4,N
1696440015.3,286047003.8,N
1696440035.1,286047003.2,N
1696440055.9,286047005.6,N
1696440075.7,286047007.4,N
1696440095.5,286047007.6,N
1696440115.4,286047006.3,N
1696440135.2,286047006.8,N
1696440155.0,286047008.8,N
1696440155.9,286047008.8,N
1696440175.8,286047009.2,N
1696440195.6,286047008.1,N
1696440215.5,286047008.7,N
1696440235.3,286047009.3,N
1696440255.1,286047012.8,Y
1696440275.9,286047013.3,P
1696440295.7,286047015.2,P
1696440315.5,286047015.5,N
1696440335.4,286047017.0,Y
1696440355.2,286047005.0,P
1696440375.1,286047006.3,N
1696440376.0,286047006.3,N
1696440395.8,286047006.8,N
1696440415.6,286047008.7,Y
1696440435.5,286046999.9,P
1696440455.3,286047001.5,N
1696440475.2,286047001.5,N
1696440495.9,286047004.3,N
1696440515.7,286047002.5,N
1696440535.6,286047002.1,N
1696440555.4,286047005.5,N
1696440575.2,286047007.2,Y
1696440595.1,286047003.3,P
1696440596.0,286047003.3,P
1696440615.8,286047004.8,P
1696440635.7,286047007.2,Y
1696440655.5,286047001.7,P
1696440675.3,286047003.9,P
1696440695.2,286047006.0,P
1696440715.0,286047006.4,Y
1696440715.9,286047006.4,P
1696440735.8,286047006.0,P
1696440755.6,286047005.1,P
1696440775.4,286047007.1,Y
1696440795.3,286047002.6,P
1696440815.1,286047002.0,N
1696440835.9,286047003.9,N
1696440855.7,286047003.4,N
1696440875.5,286047001.5,N
1696440895.4,286047002.4,N
1696440915.2,286047001.9,N
1696440935.0,286047002.1,N
1696440935.9,286047002.1,N
1696440955.8,286047002.6,N
1696440975.6,286047000.2,N
1696440995.4,286046998.6,N
1696441015.3,286046999.0,N
1696441035.1,286047000.3,N
1696441055.9,286047000.0,N
1696441075.7,286047003.6,N
1696441095.5,286047005.0,N
1696441115.4,286047008.8,Y
1696441135.2,286047004.6,P
1696441155.0,286047006.2,P
1696441155.9,286047006.2,P
1696441175.8,286047007.8,Y
1696441195.6,286047007.2,P
1696441215.5,286047008.7,P
1696441235.3,286047007.9,P
1696441255.1,286047010.3,Y
1696441275.9,286047003.3,P
1696441295.7,286047005.3,N
1696441315.6,286047003.2,N
1696441335.4,286047005.7,Y
1696441355.2,286047000.1,P
1696441375.1,286047000.0,N
1696441376.0,286047000.0,N
1696441395.8,286047001.9,N
1696441415.6,286047001.4,N
1696441435.5,286047001.3,N
1696441455.3,286047005.8,Y
1696441475.2,286047002.0,P
1696441495.9,286047001.5,P
1696441515.7,286047001.6,P
1696441535.6,286047001.7,Y
1696441555.4,286047002.6,P
1696441575.2,286047001.4,N
1696441595.1,286047004.2,P
1696441596.0,286047004.2,Y
1696441615.8,286046999.7,P
1696441635.7,286047002.5,N
1696441655.5,286047002.2,N
1696441675.3,286047003.5,N
1696441695.2,286047003.0,N
1696441715.0,286047007.6,Y
1696441715.9,286047007.6,P
1696441735.8,286047005.8,N
1696441755.6,286047004.6,N
1696441775.4,286047006.9,Y
1696441795.3,286047003.6,P
1696441815.1,286047004.9,P
1696441835.8,286047006.3,P
1696441855.7,286047010.7,Y
1696441875.5,286047005.7,P
1696441895.4,286047003.3,P
1696441915.2,286047005.5,P
1696441935.0,286047005.1,Y
1696441935.9,286047005.1,P
1696441955.8,286047001.6,P
1696441975.6,286047003.2,N
1696441995.5,286047004.7,Y
1696442015.3,286047005.8,P
1696442035.1,286047008.7,P
1696442055.9,286047009.5,P
1696442075.7,286047011.9,Y
1696442095.5,286047005.7,P
1696442115.4,286047007.4,P
1696442135.2,286047004.8,P
1696442155.1,286047005.2,Y
1696442156.0,286047005.2,P
1696442175.8,286046999.8,N
1696442195.6,286047002.3,N
1696442215.5,286047001.4,N
1696442235.3,286047003.3,N
1696442255.1,286047004.2,N
1696442275.9,286047004.0,N
1696442295.7,286047001.8,N
1696442315.6,286047004.2,N
1696442335.4,286047003.1,N
1696442355.2,286047005.5,Y
1696442375.1,286047004.3,P
1696442376.0,286047004.3,P
1696442395.8,286047003.4,P
